Wind_Speed
8 8 8 8 8 8 9 9 9 8 8 8 8 9 9 9 9 9 9 9 9 10 10 11 11 10 10 9 9 9 9 9 9 9 9 9 10 11 11 11 11 12 13
8 8 8 7 7 8 9 9 9 9 8 8 8 9 9 10 10 10 9 9 9 10 11 11 11 11 11 10 10 10 10 10 10 10 10 10 11 11 12 12 12 13 13
8 7 7 7 7 7 8 8 9 9 9 9 9 9 9 10 10 10 10 10 10 11 12 12 12 11 11 11 10 10 10 10 10 10 11 11 12 12 13 13 14 14 14
8 8 7 7 7 7 8 9 9 9 9 9 10 10 10 10 10 11 11 11 11 11 12 13 12 12 11 12 12 12 11 11 12 12 12 12 12 13 14 15 15 16 16
9 9 8 8 8 8 8 9 9 9 10 10 10 10 10 11 11 12 12 12 13 13 13 14 14 13 13 13 13 14 13 12 12 13 13 13 13 14 14 15 15 16 17
11 10 9 8 9 9 9 9 10 10 10 11 10 10 11 11 12 13 13 14 14 14 14 14 15 14 14 14 14 14 15 14 13 13 14 14 14 14 14 15 15 15 16
12 12 11 10 10 10 10 10 11 11 11 11 11 11 11 12 13 13 14 14 14 15 15 15 15 15 15 15 16 16 16 14 14 14 14 15 15 14 15 15 15 15 15
12 12 12 10 10 11 11 11 12 12 12 12 12 12 13 13 13 14 14 15 16 16 16 16 17 16 16 16 17 18 16 15 15 15 16 16 16 15 15 15 15 15 16
13 13 12 12 11 12 13 13 13 12 13 13 13 14 14 14 14 15 15 16 17 17 17 17 18 18 17 17 18 18 16 16 16 16 17 17 17 17 16 16 15 15 16
12 12 13 13 13 13 14 15 14 14 14 15 15 15 15 15 15 16 17 18 18 19 18 18 18 18 18 18 19 17 17 17 17 17 17 17 18 17 17 17 16 16 17
13 13 14 14 14 15 14 15 15 16 16 17 17 17 17 17 17 17 18 19 19 20 19 19 18 18 18 19 18 18 17 17 17 18 18 18 17 17 17 17 17 17 17
13 13 15 16 16 16 16 16 17 17 18 18 19 19 18 18 19 19 20 21 21 21 20 20 19 19 19 19 19 18 17 18 18 18 19 18 18 17 18 18 18 18 18
16 16 17 18 18 18 18 18 18 18 18 19 19 19 20 20 20 20 21 21 21 22 21 21 21 21 20 20 19 18 18 19 19 19 19 19 18 17 18 18 18 18 18
19 19 20 20 21 21 21 21 19 19 19 19 20 20 21 21 21 21 22 23 23 22 23 22 22 22 21 20 20 20 20 20 20 20 20 19 18 18 17 18 18 19 19
21 20 21 22 23 22 21 21 21 21 20 20 21 22 22 22 23 23 23 24 24 24 24 23 23 22 22 21 21 21 21 21 21 21 21 21 20 20 20 20 20 20 20
23 23 23 23 23 23 22 22 22 22 22 22 22 23 23 24 24 24 25 25 25 24 24 24 24 24 23 23 22 22 21 22 22 22 22 22 21 21 21 21 21 21 20
26 25 25 25 25 25 24 24 23 24 24 24 24 24 25 25 26 26 26 26 26 25 25 25 25 25 24 24 23 23 23 22 22 22 22 23 23 22 22 22 21 21 21
28 27 27 26 26 26 26 26 25 25 25 25 25 26 26 27 27 27 27 27 27 27 26 26 26 26 25 24 24 24 24 23 23 22 22 23 23 23 23 22 21 21 22
29 29 28 27 27 27 27 27 26 27 27 27 27 27 28 28 29 29 29 29 29 28 27 26 25 25 25 25 24 24 24 23 23 23 23 23 23 24 24 23 22 22 22
30 28 28 28 28 27 27 28 28 28 27 28 28 29 29 29 29 30 30 30 30 29 28 27 26 27 26 25 25 25 24 24 23 23 23 22 23 23 23 23 23 23 23
29 29 28 28 28 29 29 28 29 29 29 29 30 30 31 31 31 31 30 30 30 29 29 28 28 28 27 26 26 26 25 24 24 24 23 23 23 23 23 22 22 22 23
29 29 30 30 30 30 30 30 30 30 31 30 31 31 32 32 32 32 31 30 30 30 30 30 29 28 28 28 28 27 26 25 25 25 25 25 24 24 24 23 23 23 24
28 30 30 30 30 31 31 31 30 30 31 31 31 32 32 33 33 33 32 31 31 30 30 30 30 29 29 29 29 28 28 27 27 26 26 26 26 26 25 25 25 26 26
28 29 30 30 30 31 30 30 30 31 31 31 32 33 33 34 34 32 31 30 30 30 30 30 30 29 29 29 29 29 30 30 29 28 28 28 28 28 27 27 27 27 27
30 31 31 31 31 31 32 31 31 31 32 32 32 32 33 32 32 31 30 30 30 30 30 30 30 29 29 30 30 30 30 30 30 30 30 30 29 29 28 28 28 28 29
33 33 32 32 32 32 32 32 33 33 33 33 33 33 34 33 32 32 30 30 30 30 29 29 29 30 31 31 31 31 31 32 32 31 30 30 30 30 30 29 29 29 29
Wind_Direction
357 359 2 2 2 4 360 -0 1 2 2 4 6 7 7 5 5 4 3 0 356 351 348 345 342 338 336 329 320 313 310 309 308 305 303 296 290 284 279 275 272 272 271
348 345 346 349 354 356 354 352 352 354 358 0 360 1 2 358 355 354 353 353 351 347 345 342 336 331 328 322 316 312 309 307 307 304 301 299 293 287 282 279 275 273 270
330 336 339 338 345 351 350 348 346 346 347 350 352 353 353 351 350 348 345 345 344 341 339 336 331 329 326 323 319 313 307 305 307 305 303 299 295 291 285 281 278 274 271
316 324 323 326 332 339 340 341 343 343 340 341 345 347 347 345 343 341 339 338 336 334 335 335 330 328 325 326 324 314 307 302 301 302 302 300 295 290 287 282 280 277 275
309 313 312 314 318 325 329 333 334 335 334 333 338 338 338 338 337 337 337 335 337 335 333 335 332 330 325 323 322 322 314 304 299 299 300 298 295 291 288 286 283 280 278
304 304 301 306 310 312 316 322 324 326 326 326 329 328 329 332 333 333 333 332 333 333 329 329 331 328 323 321 321 320 316 310 303 301 299 296 294 295 292 289 284 283 281
305 302 295 299 306 305 309 312 315 318 316 316 318 320 324 325 328 329 329 327 327 326 325 323 324 325 322 324 323 321 317 313 311 306 301 295 293 293 293 291 286 283 281
298 301 296 297 300 304 307 308 310 314 314 313 315 316 318 320 320 321 322 321 321 320 319 319 319 320 318 318 318 318 316 310 309 307 303 298 293 291 293 294 289 284 283
297 302 303 300 301 307 307 305 308 310 310 310 310 312 315 315 314 313 315 316 316 316 316 315 313 312 313 314 314 314 313 308 306 305 302 298 293 289 290 292 290 286 285
289 296 298 297 299 303 305 303 303 305 307 306 307 309 309 310 310 309 310 310 311 312 313 309 310 310 309 309 311 312 311 309 305 305 303 298 293 287 286 287 288 287 285
282 289 292 296 301 300 300 301 301 303 303 303 304 305 305 307 306 306 307 308 309 310 310 307 309 312 309 305 308 310 309 309 307 307 306 301 294 288 285 285 286 286 285
285 287 291 299 300 299 298 300 301 299 298 299 301 302 304 305 305 304 305 308 309 308 303 302 307 309 307 304 305 305 305 306 306 306 306 305 298 291 285 284 285 285 284
284 286 289 291 293 294 293 294 296 296 294 295 298 300 301 303 303 303 305 306 306 305 302 300 301 303 302 303 301 300 300 302 303 304 305 304 301 295 291 287 284 284 284
282 283 286 289 289 290 291 292 292 292 291 293 296 299 300 300 301 301 303 304 303 301 302 300 300 300 300 301 299 296 297 300 301 302 303 303 301 299 295 293 289 286 285
281 283 287 289 289 290 289 289 290 290 291 292 295 297 299 300 301 301 302 303 302 300 299 299 299 302 303 302 299 296 296 298 300 301 301 300 298 296 294 293 291 290 289
278 282 285 287 289 290 291 291 289 288 289 291 293 295 297 298 299 299 300 301 301 299 297 297 298 300 301 300 299 297 296 297 298 298 298 297 296 295 294 292 290 290 289
280 280 282 283 287 289 288 289 287 287 287 289 291 294 295 295 296 297 298 300 298 299 297 297 295 296 298 298 297 296 295 296 297 297 296 295 295 295 293 292 291 290 291
280 280 282 284 286 287 286 286 286 285 285 286 289 291 292 293 294 295 295 296 296 296 296 297 298 297 297 297 296 295 295 296 295 294 294 295 296 296 292 290 288 289 290
279 277 278 280 282 282 282 283 284 284 285 287 288 288 290 292 293 293 293 293 294 294 294 296 295 295 295 293 293 295 296 295 294 292 291 292 294 294 291 290 289 288 288
278 278 279 279 279 279 279 280 282 283 285 287 288 288 288 289 291 291 291 291 291 292 293 293 292 291 290 290 290 292 294 293 293 292 290 290 292 294 291 290 288 287 287
277 277 278 278 279 279 279 279 280 282 283 284 286 286 287 288 289 290 289 288 289 289 290 290 290 289 287 286 286 286 288 288 290 291 290 289 290 291 291 289 288 287 287
278 277 278 279 279 279 280 279 280 281 282 283 285 286 287 287 289 288 287 286 287 287 287 287 287 286 285 284 283 283 284 285 287 288 288 288 289 290 290 289 288 287 287
278 277 277 280 279 280 281 281 281 282 283 284 285 286 287 287 287 285 284 285 285 285 286 285 285 285 284 284 282 281 282 283 286 286 287 287 287 287 286 287 287 287 287
279 279 278 280 281 282 283 283 282 283 283 283 284 286 287 288 288 284 284 284 285 285 284 284 284 284 283 282 282 281 282 284 285 285 286 286 286 286 285 285 286 287 287
281 282 281 281 281 282 284 283 282 282 282 283 284 286 287 287 288 285 284 283 284 284 283 282 281 281 281 281 280 280 281 282 282 282 283 283 283 283 284 285 285 286 286
280 280 280 280 281 281 281 282 283 280 281 283 284 284 286 287 286 287 285 284 284 283 283 282 281 282 282 281 282 282 281 282 283 281 283 283 283 283 284 284 285 286 285
Height
5923 5922 5921 5919 5918 5917 5916 5915 5914 5913 5912 5911 5910 5909 5907 5906 5905 5903 5901 5900 5898 5897 5895 5893 5891 5890 5888 5887 5886 5885 5884 5883 5882 5881 5880 5879 5878 5878 5877 5876 5876 5875 5875
5922 5921 5920 5919 5918 5917 5916 5915 5913 5912 5911 5911 5909 5908 5907 5905 5904 5902 5900 5899 5897 5895 5893 5892 5890 5888 5886 5885 5883 5882 5881 5880 5880 5879 5878 5877 5876 5874 5874 5873 5872 5872 5871
5921 5920 5920 5918 5917 5916 5915 5914 5913 5912 5910 5909 5908 5907 5906 5904 5903 5901 5899 5897 5896 5894 5891 5889 5887 5885 5883 5882 5881 5879 5878 5877 5877 5875 5875 5874 5873 5871 5870 5869 5868 5868 5867
5919 5919 5918 5917 5916 5915 5914 5913 5911 5910 5909 5908 5907 5905 5904 5903 5901 5899 5897 5895 5893 5891 5889 5887 5885 5883 5881 5879 5878 5876 5875 5874 5873 5872 5871 5870 5869 5868 5866 5865 5864 5863 5862
5917 5917 5916 5915 5914 5913 5913 5911 5910 5909 5908 5907 5905 5904 5902 5901 5899 5897 5895 5893 5891 5889 5887 5885 5882 5880 5878 5876 5875 5873 5872 5870 5869 5868 5867 5865 5864 5863 5862 5860 5859 5858 5857
5914 5914 5913 5912 5912 5911 5910 5909 5908 5907 5906 5905 5903 5902 5901 5899 5897 5895 5893 5891 5889 5887 5884 5882 5880 5877 5875 5873 5872 5870 5868 5867 5865 5864 5862 5861 5860 5858 5857 5856 5854 5853 5852
5911 5911 5910 5909 5909 5908 5908 5907 5906 5905 5904 5902 5901 5899 5898 5896 5894 5892 5890 5888 5886 5884 5881 5879 5877 5875 5872 5870 5868 5866 5865 5863 5861 5859 5858 5857 5855 5854 5853 5851 5849 5848 5847
5908 5908 5907 5906 5906 5905 5904 5904 5903 5902 5901 5899 5898 5897 5895 5893 5891 5889 5887 5885 5883 5881 5878 5876 5873 5871 5869 5867 5865 5862 5861 5859 5857 5855 5853 5852 5850 5849 5848 5846 5845 5843 5843
5905 5904 5904 5903 5902 5902 5901 5900 5900 5899 5898 5897 5895 5893 5892 5890 5888 5886 5884 5881 5879 5877 5874 5872 5870 5867 5865 5863 5861 5858 5857 5855 5853 5851 5849 5847 5846 5844 5843 5842 5840 5840 5838
5901 5901 5900 5900 5899 5899 5898 5897 5896 5895 5894 5893 5892 5890 5888 5886 5884 5882 5880 5877 5875 5873 5870 5868 5865 5863 5861 5859 5857 5854 5852 5850 5848 5846 5844 5842 5840 5839 5838 5837 5836 5835 5834
5898 5897 5896 5896 5895 5895 5894 5893 5892 5891 5890 5889 5887 5885 5883 5882 5879 5877 5875 5873 5870 5868 5865 5863 5860 5858 5856 5854 5852 5850 5848 5846 5843 5841 5839 5837 5835 5834 5832 5831 5830 5829 5828
5894 5893 5893 5892 5892 5891 5890 5889 5888 5887 5886 5884 5883 5881 5879 5877 5875 5872 5870 5868 5865 5863 5860 5858 5856 5853 5851 5849 5847 5845 5843 5841 5838 5836 5834 5832 5830 5828 5827 5826 5825 5824 5822
5890 5890 5889 5888 5888 5887 5886 5884 5883 5882 5880 5879 5877 5875 5873 5871 5869 5867 5865 5863 5860 5857 5855 5853 5850 5848 5846 5843 5841 5839 5837 5835 5833 5831 5829 5827 5824 5823 5821 5820 5819 5818 5816
5885 5885 5884 5883 5882 5881 5880 5879 5877 5876 5875 5873 5871 5869 5867 5865 5864 5862 5859 5857 5854 5852 5849 5847 5845 5842 5840 5838 5836 5834 5832 5830 5828 5826 5824 5822 5820 5818 5816 5814 5813 5811 5810
5879 5879 5878 5877 5876 5875 5874 5873 5871 5870 5868 5867 5865 5864 5862 5860 5858 5856 5853 5851 5848 5845 5843 5841 5839 5837 5834 5832 5830 5828 5827 5825 5822 5820 5818 5816 5814 5812 5810 5809 5807 5805 5804
5872 5872 5872 5871 5870 5869 5868 5867 5866 5864 5863 5861 5860 5858 5856 5854 5852 5850 5847 5844 5841 5839 5836 5834 5832 5830 5829 5827 5825 5823 5821 5819 5816 5814 5812 5810 5808 5806 5804 5802 5801 5799 5797
5866 5866 5865 5864 5863 5862 5861 5860 5859 5858 5857 5855 5853 5852 5850 5848 5846 5843 5841 5838 5835 5832 5830 5828 5826 5824 5822 5820 5818 5816 5814 5812 5810 5808 5806 5803 5801 5799 5797 5796 5794 5792 5791
5858 5858 5857 5856 5856 5855 5854 5853 5852 5851 5849 5847 5846 5845 5843 5841 5839 5836 5834 5831 5829 5826 5824 5821 5819 5817 5816 5814 5812 5810 5808 5805 5803 5801 5799 5797 5795 5793 5791 5789 5787 5786 5784
5850 5850 5849 5849 5848 5848 5847 5846 5845 5844 5843 5841 5839 5838 5836 5834 5831 5829 5826 5824 5821 5819 5816 5814 5812 5811 5809 5807 5805 5803 5801 5798 5796 5794 5792 5790 5788 5786 5784 5782 5780 5779 5777
5842 5842 5841 5841 5840 5840 5839 5838 5837 5836 5834 5833 5831 5830 5828 5826 5823 5821 5818 5815 5813 5811 5809 5806 5804 5803 5801 5799 5797 5795 5793 5791 5789 5787 5785 5783 5781 5779 5777 5775 5773 5771 5770
5833 5833 5833 5832 5832 5831 5830 5829 5828 5827 5826 5825 5823 5821 5819 5817 5814 5812 5810 5807 5805 5803 5801 5799 5796 5794 5793 5791 5789 5788 5786 5784 5782 5780 5778 5776 5774 5772 5770 5768 5766 5764 5763
5824 5824 5824 5823 5822 5821 5821 5820 5819 5818 5817 5815 5813 5812 5810 5808 5805 5803 5801 5798 5796 5794 5792 5790 5788 5786 5784 5782 5781 5779 5778 5776 5775 5773 5771 5769 5767 5765 5763 5761 5759 5757 5755
5816 5815 5815 5814 5813 5813 5812 5811 5810 5808 5807 5806 5804 5802 5800 5798 5796 5794 5791 5789 5787 5785 5783 5781 5779 5777 5775 5774 5772 5770 5769 5768 5766 5765 5764 5762 5760 5758 5756 5754 5752 5749 5747
5807 5806 5806 5805 5804 5803 5802 5802 5800 5799 5798 5796 5795 5793 5791 5789 5786 5783 5781 5779 5777 5775 5773 5771 5770 5768 5766 5765 5763 5762 5760 5759 5758 5756 5755 5753 5751 5749 5747 5746 5744 5741 5739
5799 5798 5797 5797 5796 5794 5793 5793 5791 5790 5788 5787 5785 5784 5781 5779 5777 5774 5772 5770 5768 5765 5763 5762 5760 5759 5757 5756 5754 5752 5751 5750 5748 5747 5745 5744 5742 5741 5739 5737 5735 5733 5731
5790 5789 5788 5787 5786 5785 5784 5783 5781 5779 5778 5777 5775 5774 5771 5769 5766 5764 5762 5760 5758 5755 5753 5752 5751 5749 5748 5746 5745 5743 5741 5740 5738 5737 5736 5734 5732 5731 5729 5728 5726 5724 5722